[[{"header":{"parameterUnit":"m.s-1","parameterCategory":1,"la1":30.2991,"la2":30.254,"lo1":-89.0895,"lo2":-89.0444,"dy":0.0017,"dx":0.0017,"nx":28,"ny":28,"refTime":"2025-07-03T21:00:00:Z","depth":0,"parameterNumber":2,"parameterNumberName":"U-component_of_WINDS"},"data":[0,0,0,0,0,0,0,0,0,0,0,0,0,0,0,0,0,0,0,0,0,0,0,0,0,0,0,0,0,0,0,0,0,0,0,0,0,0,0,0,0,0,0,0,0,0,0,0,0,0,0,0,0,0,0,0,0,0,-1.351,-1.3509,0,-1.3447,-1.3446,-1.3445,-1.3366,-1.3365,-1.3364,-1.3362,-1.3296,-1.3296,-1.3295,0,0,0,0,0,0,0,0,0,0,0,0,0,-1.3562,-1.3561,-1.351,-1.3509,-1.3508,-1.3447,-1.3446,-1.3445,-1.3366,-1.3365,-1.3363,-1.3362,-1.3296,-1.3296,-1.3295,0,0,0,0,0,0,0,0,0,0,0,0,0,-1.3523,-1.3561,-1.351,-1.3462,-1.3457,-1.3447,-1.3446,-1.3445,-1.3367,-1.3365,-1.3363,-1.3361,-1.3297,-1.3296,-1.3295,-1.3327,0,0,-1.3292,-1.3292,0,0,0,0,0,0,0,0,-1.3525,-1.3521,-1.347,-1.3465,-1.3459,-1.3412,-1.344,-1.3405,-1.3367,-1.3401,-1.3362,-1.336,-1.3336,-1.3332,-1.3324,-1.3324,-1.3321,-1.3292,-1.3292,-1.3291,-1.3291,0,0,0,0,0,0,0,-1.3528,-1.3523,-1.3485,-1.3469,-1.3463,-1.3443,-1.3435,-1.3433,-1.338,-1.3398,-1.3392,-1.3385,-1.3333,-1.3325,-1.3322,-1.332,-1.3292,-1.3291,-1.3291,-1.329,-1.3344,-1.3346,0,0,0,0,0,0,-1.3538,-1.3526,-1.3487,-1.3483,-1.3488,-1.3443,-1.3435,-1.3429,-1.338,-1.337,-1.3387,-1.3382,-1.3328,-1.3323,-1.3319,-1.3355,-1.3291,-1.329,-1.329,-1.3342,-1.3344,-1.3346,0,0,0,0,0,0,-1.354,-1.3535,-1.3489,-1.3503,-1.3496,-1.3445,-1.3439,-1.3429,-1.3421,-1.3372,-1.3362,-1.3389,-1.3326,-1.3321,-1.3326,-1.3351,-1.329,-1.3289,-1.334,-1.3343,-1.3345,-1.3425,0,0,0,0,0,0,-1.3541,-1.3536,-1.3548,-1.3504,-1.3495,-1.3498,-1.344,-1.3429,-1.342,-1.3413,-1.3371,-1.3362,-1.3324,-1.3328,-1.3325,-1.3349,-1.3288,-1.3337,-1.3341,-1.3345,-1.342,-1.3431,-1.344,0,0,0,0,0,-1.3544,-1.3573,-1.3549,-1.3545,-1.3509,-1.3499,-1.3494,-1.3451,-1.3422,-1.3434,-1.3402,-1.3363,-1.3349,-1.3329,-1.3325,-1.3349,-1.3335,-1.334,-1.3344,-1.3416,-1.3429,-1.3439,0,0,0,0,0,0,-1.3621,-1.3566,-1.3539,-1.3555,-1.3533,-1.3486,-1.3499,-1.3465,-1.345,-1.3444,-1.3389,-1.3381,-1.3393,-1.3371,-1.335,-1.3378,-1.3336,-1.334,-1.3392,-1.3404,-1.3413,-1.3419,-1.3288,0,0,0,0,0,-1.364,-1.3637,-1.3589,-1.3608,-1.3598,-1.3551,-1.3545,-1.3513,-1.3487,-1.3477,-1.3446,-1.3422,-1.3412,-1.3406,-1.3394,-1.3416,-1.3407,-1.3431,-1.3441,-1.3449,-1.3453,-1.3464,-1.3475,-1.3361,-1.3361,-1.3361,0,0,-1.3679,-1.3649,-1.365,-1.3623,-1.3601,-1.3599,-1.3543,-1.3543,-1.3541,-1.3477,-1.3481,-1.3457,-1.3426,-1.3441,-1.3445,-1.3423,-1.3482,-1.3455,-1.3461,-1.3461,-1.347,-1.3481,-1.349,-1.3364,-1.3363,-1.3363,0,0,-1.375,-1.3726,-1.374,-1.372,-1.3689,-1.3657,-1.3661,-1.3619,-1.3601,-1.3604,-1.3556,-1.3552,-1.3536,-1.3517,-1.3505,-1.3569,-1.3533,-1.3567,-1.3618,-1.3629,-1.3638,-1.3646,-1.367,-1.3679,-1.3571,-1.3571,-1.3571,0,-1.3803,-1.3798,-1.3751,-1.3754,-1.3744,-1.3686,-1.37,-1.3682,-1.3649,-1.3643,-1.3618,-1.3597,-1.3573,-1.3582,-1.3598,-1.359,-1.3592,-1.3572,-1.3641,-1.3648,-1.3654,-1.3677,-1.3686,-1.3575,-1.3575,-1.3574,-1.3574,0,-1.3865,-1.3863,-1.3877,-1.3847,-1.3838,-1.3846,-1.3801,-1.3797,-1.3766,-1.3737,-1.3741,-1.371,-1.3691,-1.3691,-1.366,-1.3696,-1.3683,-1.3651,-1.3608,-1.367,-1.369,-1.3698,-1.3582,-1.358,-1.3579,-1.3578,0,0,-1.3983,-1.3927,-1.3934,-1.392,-1.3881,-1.3878,-1.3884,-1.3866,-1.3865,-1.3843,-1.3847,-1.3835,-1.3805,-1.3791,-1.3758,-1.3768,-1.3822,-1.3734,-1.3732,-1.3752,-1.3861,-1.3887,-1.3898,-1.3798,-1.3799,-1.38,-1.3864,0,-1.4048,-1.4055,-1.4013,-1.4032,-1.403,-1.3975,-1.398,-1.3957,-1.393,-1.3924,-1.3894,-1.3887,-1.3846,-1.3838,-1.3845,-1.3814,-1.3844,-1.3809,-1.3801,-1.3802,-1.3812,-1.3908,-1.3935,-1.3997,-1.3871,-1.3873,-1.3874,0,-1.4124,-1.4108,-1.4127,-1.4088,-1.4085,-1.4091,-1.4072,-1.4066,-1.4039,-1.4019,-1.4005,-1.3967,-1.3969,-1.3928,-1.3932,-1.3909,-1.3903,-1.3887,-1.3889,-1.3887,-1.3842,-1.391,-1.4016,-1.4026,-1.3885,-1.3884,-1.3883,0,-1.421,-1.4193,-1.4202,-1.4192,-1.4146,-1.4152,-1.4133,-1.4104,-1.4096,-1.4079,-1.4073,-1.4057,-1.4048,-1.4036,-1.3994,-1.3968,-1.4003,-1.3958,-1.3987,-1.3988,-1.3998,-1.3998,-1.4105,-1.3992,-1.3992,-1.3992,-1.3992,0,-1.4287,-1.4301,-1.424,-1.4246,-1.426,-1.4212,-1.4227,-1.4202,-1.4177,-1.4177,-1.4128,-1.4129,-1.4074,-1.4069,-1.4036,-1.4045,-1.4041,-1.4025,-1.4016,-1.403,-1.4032,-1.4026,-1.4021,-1.3994,-1.3994,-1.3993,-1.3993,0,-1.4386,-1.4346,-1.4353,-1.4309,-1.4299,-1.4311,-1.4274,-1.4278,-1.4248,-1.4249,-1.4246,-1.42,-1.4191,-1.4148,-1.413,-1.4108,-1.4128,-1.411,-1.4138,-1.4132,-1.4164,-1.4163,-1.4272,-1.4285,-1.4163,-1.4165,-1.4166,0,-1.4439,-1.4448,-1.4406,-1.4403,-1.4387,-1.4383,-1.4375,-1.4327,-1.4321,-1.4291,-1.4298,-1.4286,-1.4274,-1.4263,-1.4227,-1.4213,-1.4195,-1.4234,-1.4192,-1.4206,-1.4197,-1.4197,-1.4199,-1.4244,-1.4245,-1.4246,-1.4248,0,-1.4536,-1.4516,-1.4507,-1.4491,-1.4484,-1.4469,-1.4451,-1.4451,-1.4398,-1.4393,-1.4384,-1.4375,-1.4357,-1.4345,-1.4325,-1.4305,-1.4268,-1.4261,-1.4267,-1.4282,-1.4298,-1.4291,-1.4164,-1.4259,-1.4258,-1.4257,-1.4256,-1.4256,-1.4614,-1.4621,-1.4593,-1.4584,-1.4566,-1.4551,-1.4552,-1.4523,-1.4515,-1.4497,-1.4469,-1.4464,-1.4437,-1.4406,-1.4389,-1.4385,-1.4363,-1.4372,-1.4374,-1.4378,-1.4385,-1.4298,-1.4381,-1.438,-1.438,-1.438,-1.4379,0,-1.4711,-1.469,-1.4683,-1.466,-1.4654,-1.4619,-1.4598,-1.4595,-1.4592,-1.4569,-1.4559,-1.4549,-1.4538,-1.4502,-1.4487,-1.449,-1.4473,-1.4488,-1.4488,-1.4484,-1.4405,-1.4401,-1.4503,-1.4503,-1.4503,-1.4503,-1.4503,-1.4503,-1.4761,-1.477,-1.4747,-1.4747,-1.4725,-1.4721,-1.4712,-1.4698,-1.468,-1.4672,-1.4663,-1.4639,-1.4611,-1.4594,-1.4583,-1.4572,-1.457,-1.4591,-1.4575,-1.4502,-1.449,-1.4479,-1.4475,-1.459,-1.4591,-1.4655,-1.4656,-1.4656]},{"header":{"parameterUnit":"m.s-1","parameterCategory":1,"la1":30.2991,"la2":30.254,"lo1":-89.0895,"lo2":-89.0444,"dy":0.0017,"dx":0.0017,"nx":28,"ny":28,"refTime":"2025-07-03T21:00:00:Z","depth":0,"parameterNumber":3,"parameterNumberName":"V-component_of_WINDS"},"data":[0,0,0,0,0,0,0,0,0,0,0,0,0,0,0,0,0,0,0,0,0,0,0,0,0,0,0,0,0,0,0,0,0,0,0,0,0,0,0,0,0,0,0,0,0,0,0,0,0,0,0,0,0,0,0,0,0,0,-1.9991,-1.9991,0,-1.9976,-1.9976,-1.9976,-1.9945,-1.9945,-1.9944,-1.9944,-1.9929,-1.9929,-1.9929,0,0,0,0,0,0,0,0,0,0,0,0,0,-1.9994,-1.9994,-1.9991,-1.9991,-1.9991,-1.9976,-1.9976,-1.9976,-1.9945,-1.9945,-1.9944,-1.9943,-1.9929,-1.9929,-1.9929,0,0,0,0,0,0,0,0,0,0,0,0,0,-1.9987,-1.9994,-1.9991,-1.9974,-1.9972,-1.9976,-1.9976,-1.9976,-1.9946,-1.9945,-1.9944,-1.9943,-1.9929,-1.9929,-1.9929,-1.9949,0,0,-1.993,-1.993,0,0,0,0,0,0,0,0,-1.9988,-1.9987,-1.9977,-1.9975,-1.9973,-1.9962,-1.9972,-1.9967,-1.9946,-1.9956,-1.9943,-1.9942,-1.994,-1.994,-1.9939,-1.9948,-1.9948,-1.993,-1.993,-1.993,-1.993,0,0,0,0,0,0,0,-1.9988,-1.9988,-1.9985,-1.9977,-1.9974,-1.9967,-1.9965,-1.997,-1.9953,-1.9955,-1.9953,-1.9951,-1.9939,-1.9939,-1.9938,-1.9947,-1.993,-1.993,-1.993,-1.993,-1.9972,-1.9973,0,0,0,0,0,0,-1.9991,-1.9988,-1.9986,-1.9985,-1.9978,-1.9968,-1.9966,-1.9966,-1.9953,-1.995,-1.9952,-1.995,-1.9939,-1.9938,-1.9938,-1.996,-1.993,-1.993,-1.9931,-1.9971,-1.9973,-1.9974,0,0,0,0,0,0,-1.9992,-1.9991,-1.9986,-1.9986,-1.9985,-1.9969,-1.997,-1.9966,-1.9966,-1.9951,-1.9948,-1.9954,-1.9938,-1.9937,-1.9946,-1.9959,-1.993,-1.9931,-1.997,-1.9972,-1.9973,-2.0006,0,0,0,0,0,0,-1.9992,-1.9992,-1.9999,-1.9986,-1.9985,-1.9995,-1.9971,-1.9967,-1.9966,-1.9963,-1.9953,-1.995,-1.9937,-1.9946,-1.9947,-1.9959,-1.9931,-1.9969,-1.9971,-1.9973,-2.0003,-2.0008,-2.0012,0,0,0,0,0,-1.9992,-2.0009,-1.9999,-1.9999,-1.9994,-1.9996,-1.9995,-1.998,-1.9967,-1.9975,-1.9965,-1.995,-1.9958,-1.9947,-1.9948,-1.996,-1.9968,-1.997,-1.9973,-2.0001,-2.0007,-2.0012,0,0,0,0,0,0,-2.0023,-2.0007,-1.9996,-2.0009,-2.0004,-1.9991,-2.0,-1.9987,-1.9985,-1.9982,-1.9964,-1.9962,-1.9973,-1.9968,-1.9956,-1.9979,-1.9961,-1.9963,-1.9982,-1.9988,-1.9992,-1.9993,-1.9931,0,0,0,0,0,-2.0032,-2.0035,-2.002,-2.0033,-2.0031,-2.0016,-2.0016,-2.0005,-1.9999,-1.9997,-1.9988,-1.9983,-1.9984,-1.9986,-1.9986,-2.0002,-2.0,-2.0011,-2.0015,-2.0019,-2.0021,-2.003,-2.0035,-1.9981,-1.9981,-1.9981,0,0,-2.0049,-2.0041,-2.0044,-2.0039,-2.0034,-2.0038,-2.0014,-2.002,-2.0022,-1.9998,-2.0006,-1.9999,-1.9992,-2.0005,-2.0011,-2.0001,-2.0036,-2.0022,-2.0025,-2.0025,-2.0033,-2.0038,-2.0042,-1.9982,-1.9982,-1.9982,0,0,-2.0084,-2.0077,-2.0087,-2.0083,-2.0075,-2.0064,-2.0067,-2.0055,-2.005,-2.0058,-2.004,-2.0043,-2.0045,-2.0041,-2.0039,-2.0072,-2.0058,-2.0072,-2.0095,-2.0104,-2.0108,-2.0112,-2.0124,-2.0128,-2.0075,-2.0075,-2.0075,0,-2.0106,-2.0111,-2.0094,-2.0101,-2.0099,-2.0077,-2.0088,-2.0084,-2.0077,-2.0076,-2.0066,-2.0068,-2.0062,-2.0074,-2.0082,-2.0081,-2.0083,-2.0074,-2.0109,-2.0112,-2.0115,-2.0127,-2.0131,-2.0076,-2.0076,-2.0076,-2.0076,0,-2.014,-2.0144,-2.0153,-2.0147,-2.0146,-2.0155,-2.0139,-2.0141,-2.013,-2.0121,-2.0129,-2.0121,-2.0119,-2.0121,-2.011,-2.0131,-2.0125,-2.0112,-2.0093,-2.0123,-2.0133,-2.0137,-2.0079,-2.0078,-2.0078,-2.0077,0,0,-2.0194,-2.0178,-2.0182,-2.0179,-2.0168,-2.0171,-2.0178,-2.0177,-2.0179,-2.0174,-2.018,-2.0183,-2.017,-2.0168,-2.0157,-2.0164,-2.0191,-2.0149,-2.0149,-2.0158,-2.0214,-2.0225,-2.023,-2.0181,-2.0182,-2.0183,-2.0215,0,-2.0226,-2.0238,-2.0223,-2.0238,-2.0241,-2.022,-2.0227,-2.0221,-2.0213,-2.0215,-2.0205,-2.0207,-2.019,-2.0189,-2.0195,-2.0186,-2.0202,-2.0184,-2.0187,-2.0187,-2.019,-2.0235,-2.0246,-2.0277,-2.0218,-2.0219,-2.022,0,-2.0266,-2.0263,-2.0279,-2.0267,-2.0268,-2.0274,-2.0272,-2.0273,-2.0267,-2.026,-2.0258,-2.0244,-2.0251,-2.0232,-2.0241,-2.0229,-2.0229,-2.0225,-2.0226,-2.0226,-2.0206,-2.0237,-2.0286,-2.0291,-2.0226,-2.0225,-2.0225,0,-2.0304,-2.0305,-2.0314,-2.0312,-2.0299,-2.0304,-2.0299,-2.0291,-2.0291,-2.0288,-2.0288,-2.0286,-2.0286,-2.0285,-2.0271,-2.0259,-2.0282,-2.0262,-2.0277,-2.0277,-2.0283,-2.0283,-2.0334,-2.0283,-2.0283,-2.0283,-2.0282,0,-2.0342,-2.0353,-2.0331,-2.0337,-2.0348,-2.033,-2.0342,-2.0335,-2.0328,-2.0332,-2.0313,-2.0318,-2.0299,-2.0301,-2.029,-2.03,-2.0299,-2.0294,-2.0291,-2.0296,-2.0297,-2.0297,-2.0294,-2.0284,-2.0283,-2.0283,-2.0283,0,-2.0387,-2.0373,-2.0382,-2.0369,-2.0366,-2.0375,-2.0364,-2.0369,-2.0359,-2.0364,-2.0364,-2.0349,-2.0351,-2.0337,-2.0336,-2.0329,-2.0343,-2.0336,-2.0346,-2.0344,-2.0359,-2.0358,-2.0412,-2.0419,-2.0363,-2.0364,-2.0364,0,-2.0413,-2.042,-2.0408,-2.0409,-2.0405,-2.0407,-2.0407,-2.039,-2.039,-2.0383,-2.0389,-2.0389,-2.0389,-2.0393,-2.0382,-2.0381,-2.0374,-2.0393,-2.0374,-2.0379,-2.0375,-2.0375,-2.0376,-2.0397,-2.0398,-2.0398,-2.0399,0,-2.046,-2.0452,-2.0452,-2.045,-2.045,-2.0448,-2.0444,-2.0446,-2.0428,-2.0429,-2.0431,-2.043,-2.0429,-2.043,-2.0427,-2.0421,-2.0407,-2.0405,-2.0408,-2.0414,-2.0419,-2.0417,-2.0357,-2.0404,-2.0403,-2.0403,-2.0403,-2.0403,-2.0496,-2.0502,-2.0494,-2.0495,-2.049,-2.0487,-2.0491,-2.0481,-2.0482,-2.048,-2.047,-2.0473,-2.0466,-2.0461,-2.0457,-2.046,-2.045,-2.0455,-2.0457,-2.0458,-2.0461,-2.0418,-2.0459,-2.0459,-2.0459,-2.0458,-2.0458,0,-2.0542,-2.0536,-2.0537,-2.0532,-2.0533,-2.0519,-2.0514,-2.0516,-2.0519,-2.0513,-2.0513,-2.0515,-2.0515,-2.0504,-2.0503,-2.0507,-2.0501,-2.0508,-2.0507,-2.0506,-2.0469,-2.0467,-2.0513,-2.0513,-2.0513,-2.0513,-2.0513,-2.0513,-2.0566,-2.0575,-2.0567,-2.0574,-2.0567,-2.057,-2.0569,-2.0566,-2.0561,-2.0564,-2.0564,-2.0557,-2.0549,-2.0548,-2.0547,-2.0544,-2.0545,-2.0554,-2.0549,-2.0514,-2.0509,-2.0504,-2.0501,-2.0554,-2.0554,-2.0585,-2.0586,-2.0586]}]]